Location: Charlottesville
(38.0290°N, 78.4770°W)
Time: 19:50:02
(UTC-05:00)

Vanguard 1 - All Passes

Search period start: 21 February 2018 00:00
Search period end: 03 March 2018 00:00
Orbit: 650 x 3833 km, 34.2° (Epoch: 21 February)

Date Brightness Start Highest point End Pass type
(mag) Time Alt. Az. Time Alt. Az. Time Alt. Az.
21 Feb - 11:56:34 10° SSW 12:10:40 27° SSE 12:20:04 10° E daylight
21 Feb - 14:19:10 10° SW 14:33:30 51° SSE 14:41:20 10° E daylight
21 Feb - 16:44:40 10° W 16:54:53 67° S 17:00:37 10° E daylight
21 Feb - 19:08:54 10° W 19:14:53 38° SSW 19:19:11 10° SE visible
22 Feb - 10:02:01 10° SSE 10:08:04 12° SE 10:13:26 10° ESE daylight
22 Feb - 12:16:12 10° SSW 12:31:57 34° SSE 12:41:47 10° E daylight
22 Feb - 14:40:17 10° WSW 14:54:38 59° SSE 15:02:17 10° E daylight
22 Feb - 17:06:07 10° W 17:15:52 66° S 17:21:25 10° ESE daylight
22 Feb - 19:30:19 10° W 19:35:34 29° SSW 19:39:33 10° SSE visible
23 Feb - 10:17:33 10° S 10:29:25 18° SE 10:38:45 10° ESE daylight
23 Feb - 12:36:22 10° SW 12:53:12 42° SSE 13:03:09 10° E daylight
23 Feb - 15:01:39 10° WSW 15:15:45 65° S 15:23:11 10° E daylight
23 Feb - 17:27:35 10° W 17:36:48 61° SSW 17:42:11 10° ESE daylight
23 Feb - 19:51:59 10° W 19:56:10 20° SW 19:59:34 10° SSE visible
24 Feb - 10:35:36 10° S 10:50:43 25° SE 11:01:42 10° E daylight
24 Feb - 12:56:59 10° SW 13:14:27 50° SSE 13:24:19 10° E daylight
24 Feb - 15:23:09 10° WSW 15:36:51 70° S 15:44:04 10° E daylight
24 Feb - 17:49:02 10° W 17:57:40 53° SSW 18:02:52 10° ESE daylight
24 Feb - 20:14:20 10° WSW 20:16:41 13° SW 20:18:47 10° SSW visible
25 Feb - 10:54:41 10° SSW 11:11:59 32° SSE 11:23:48 10° E daylight
25 Feb - 13:17:57 10° SW 13:35:40 57° SSE 13:45:22 10° E daylight
25 Feb - 15:44:44 10° W 15:57:57 71° S 16:04:54 10° E daylight
25 Feb - 18:10:30 10° W 18:18:27 42° SSW 18:23:25 10° SE daylight
26 Feb - 08:58:44 10° SSE 09:09:00 15° SE 09:17:56 10° ESE daylight
26 Feb - 11:14:28 10° SSW 11:33:15 39° SSE 11:45:26 10° E daylight
26 Feb - 13:39:12 10° WSW 13:56:53 64° SSE 14:06:20 10° E daylight
26 Feb - 16:06:20 10° W 16:19:00 70° S 16:25:43 10° ESE daylight
26 Feb - 18:32:04 10° W 18:39:06 32° SSW 18:43:46 10° SSE visible
27 Feb - 09:15:31 10° S 09:30:12 21° SE 09:42:08 10° E daylight
27 Feb - 11:34:44 10° SW 11:54:32 47° SSE 12:06:47 10° E daylight
27 Feb - 14:00:39 10° WSW 14:18:05 70° S 14:27:16 10° E daylight
27 Feb - 16:27:57 10° W 16:39:59 65° SSW 16:46:28 10° ESE daylight
27 Feb - 18:53:48 10° W 18:59:37 23° SW 19:03:47 10° SSE visible
28 Feb - 09:33:55 10° SSW 09:51:24 28° SE 10:04:52 10° E daylight
28 Feb - 11:55:25 10° SW 12:15:49 55° SSE 12:27:58 10° E daylight
28 Feb - 14:22:16 10° WSW 14:39:18 74° S 14:48:10 10° E daylight
28 Feb - 16:49:34 10° W 17:00:54 57° SSW 17:07:09 10° ESE daylight
28 Feb - 19:16:04 10° WSW 19:20:01 15° SW 19:23:12 10° S visible
01 Mar - 07:43:54 10° SE 07:48:22 11° SE 07:52:41 10° ESE daylight
01 Mar - 09:53:11 10° SSW 10:12:36 36° SE 10:26:53 10° E daylight
01 Mar - 12:16:27 10° SW 12:37:06 62° SSE 12:49:03 10° E daylight
01 Mar - 14:43:59 10° W 15:00:29 75° S 15:09:02 10° E daylight
01 Mar - 17:11:11 10° W 17:21:41 47° SSW 17:27:41 10° SE daylight
02 Mar - 07:57:05 10° SSE 08:09:26 17° SE 08:20:40 10° ESE daylight
02 Mar - 10:13:02 10° SSW 10:33:50 43° SSE 10:48:31 10° E daylight
02 Mar - 12:37:44 10° WSW 12:58:25 69° SSE 13:10:04 10° E daylight
02 Mar - 15:05:43 10° W 15:21:37 73° S 15:29:53 10° ESE daylight
02 Mar - 17:32:51 10° W 17:42:20 37° SSW 17:48:02 10° SSE daylight
